TimeEST,TemperatureF,Dew PointF,Humidity,Sea Level PressureIn,VisibilityMPH,Wind Direction,Wind SpeedMPH,Gust SpeedMPH,PrecipitationIn,Events,Conditions,WindDirDegrees,DateUTC
12:53 AM,39.9,34.0,79,30.32,10.0,NNW,5.8,-,N/A,,Clear,330,2012-11-13 05:53:00
1:53 AM,39.0,32.0,76,30.31,10.0,Variable,6.9,-,N/A,,Clear,0,2012-11-13 06:53:00
2:53 AM,37.9,32.0,79,30.31,10.0,Variable,5.8,-,N/A,,Clear,0,2012-11-13 07:53:00
3:53 AM,37.0,32.0,82,30.31,10.0,NNW,6.9,-,N/A,,Clear,340,2012-11-13 08:53:00
4:53 AM,37.0,30.9,79,30.32,10.0,NNW,5.8,-,N/A,,Clear,340,2012-11-13 09:53:00
5:53 AM,36.0,30.0,79,30.33,10.0,Variable,3.5,-,N/A,,Clear,0,2012-11-13 10:53:00
7:53 AM,37.0,28.9,73,30.37,10.0,Variable,5.8,-,N/A,,Clear,0,2012-11-13 12:53:00
8:53 AM,39.9,30.0,68,30.38,10.0,North,6.9,-,N/A,,Clear,350,2012-11-13 13:53:00
9:53 AM,43.0,30.0,60,30.38,10.0,North,9.2,-,N/A,,Clear,360,2012-11-13 14:53:00
11:53 AM,48.9,30.0,48,30.35,10.0,Variable,5.8,-,N/A,,Clear,0,2012-11-13 16:53:00
12:53 PM,51.1,30.0,44,30.33,10.0,North,8.1,-,N/A,,Clear,360,2012-11-13 17:53:00
1:53 PM,53.1,28.9,40,30.31,10.0,North,8.1,-,N/A,,Clear,350,2012-11-13 18:53:00
2:53 PM,54.0,28.9,38,30.30,10.0,North,8.1,-,N/A,,Clear,350,2012-11-13 19:53:00
3:53 PM,53.1,28.0,38,30.29,10.0,North,5.8,-,N/A,,Clear,350,2012-11-13 20:53:00
4:53 PM,50.0,28.0,43,30.30,10.0,Variable,4.6,-,N/A,,Clear,0,2012-11-13 21:53:00
5:53 PM,48.0,28.0,46,30.30,10.0,Variable,3.5,-,N/A,,Clear,0,2012-11-13 22:53:00
6:53 PM,45.0,28.0,52,30.31,10.0,Calm,Calm,-,N/A,,Clear,0,2012-11-13 23:53:00
7:53 PM,44.1,28.0,53,30.32,10.0,Calm,Calm,-,N/A,,Clear,0,2012-11-14 00:53:00
8:53 PM,39.9,30.0,68,30.33,10.0,Calm,Calm,-,N/A,,Clear,0,2012-11-14 01:53:00
9:53 PM,37.0,30.9,79,30.34,10.0,Calm,Calm,-,N/A,,Clear,0,2012-11-14 02:53:00
10:53 PM,36.0,30.9,82,30.34,10.0,Calm,Calm,-,N/A,,Clear,0,2012-11-14 03:53:00
11:53 PM,35.1,30.9,85,30.33,10.0,Calm,Calm,-,N/A,,Clear,0,2012-11-14 04:53:00